Weather History for KHNB - April, 2013

Change the Weather History Date:

Friday, April 12, 2013

  Actual Average Record
Temperature  
Mean Temperature 43 °F -  
Max Temperature 51 °F 63 °F 78 °F (2001)
Min Temperature 35 °F 44 °F 28 °F (2012)
Degree Days  
Heating Degree Days 22    
Moisture  
Dew Point 33 °F    
Average Humidity 66    
Maximum Humidity 81    
Minimum Humidity 50    
Precipitation  
Precipitation 0.00 in - - ()
Sea Level Pressure  
Sea Level Pressure 29.84 in    
Wind  
Wind Speed 13 mph (West)    
Max Wind Speed 22 mph    
Max Gust Speed 29 mph    
Visibility 10 miles    
Events      
Averages and records for this station are not official NWS values.
T = Trace of Precipitation, MM = Missing Value Source: NWS Daily Summary

Daily Weather History Graph

Daily Weather History Graph

Search for Another Location

Airport or City:

Trip Planner

Search our weather history database for the weather conditions in past years. The results will help you decide how hot, cold, wet, or windy it might be!

Date:

Astronomy

Apr. 12, 2013 Rise Set
Actual Time 7:16 AM EDT 8:21 PM EDT
Civil Twilight 6:48 AM EDT 8:48 PM EDT
Nautical Twilight 6:16 AM EDT 9:21 PM EDT
Astronomical Twilight 5:43 AM EDT 9:54 PM EDT
Moon 8:27 AM EDT (4/12) 10:49 PM EDT (4/12)
Length of Visible Light 13h 59m
Length of Day
13h 05m
Waxing Crescent, 5% of the Moon is Illuminated
Apr 12
Waxing Crescent
Apr 18
First Quarter
Apr 25
Full
May 2
Last Quarter
May 9
New

Hourly Weather History & Observations

Time (EDT) Temp. Windchill Dew Point Humidity Pressure Visibility Wind Dir Wind Speed Gust Speed Precip Events Conditions
12:15 AM 48.2 °F - 41.0 °F 76% 29.69 in 10.0 mi WNW 15.0 mph 23.0 mph N/A   Overcast
12:35 AM 46.4 °F 40.7 °F 39.2 °F 76% 29.70 in 10.0 mi WNW 12.7 mph - N/A   Overcast
12:55 AM 46.4 °F 39.5 °F 39.2 °F 76% 29.71 in 10.0 mi NW 17.3 mph 21.9 mph N/A   Overcast
1:15 AM 46.4 °F 40.4 °F 37.4 °F 71% 29.72 in 10.0 mi WNW 13.8 mph 19.6 mph N/A   Overcast
1:35 AM 44.6 °F 37.2 °F 35.6 °F 71% 29.73 in 10.0 mi West 17.3 mph 24.2 mph N/A   Overcast
2:15 AM 42.8 °F 35.1 °F 33.8 °F 70% 29.73 in 10.0 mi WNW 16.1 mph 20.7 mph N/A   Clear
2:35 AM 41.0 °F 34.3 °F 33.8 °F 76% 29.73 in 10.0 mi WNW 11.5 mph - N/A   Partly Cloudy
2:55 AM 41.0 °F 33.5 °F 33.8 °F 76% 29.74 in 10.0 mi WNW 13.8 mph - N/A   Clear
3:15 AM 39.2 °F 33.6 °F 33.8 °F 81% 29.73 in 10.0 mi West 8.1 mph - N/A   Partly Cloudy
3:35 AM 39.2 °F 33.6 °F 32.0 °F 75% 29.73 in 10.0 mi West 8.1 mph - N/A   Partly Cloudy
3:55 AM 39.2 °F 33.6 °F 33.8 °F 81% 29.74 in 10.0 mi West 8.1 mph - N/A   Mostly Cloudy
4:15 AM 39.2 °F 33.0 °F 33.8 °F 81% 29.74 in 10.0 mi West 9.2 mph - N/A   Overcast
4:35 AM 41.0 °F 34.7 °F 32.0 °F 70% 29.74 in 10.0 mi West 10.4 mph 16.1 mph N/A   Overcast
5:15 AM 37.4 °F 30.8 °F 30.2 °F 75% 29.76 in 10.0 mi WSW 9.2 mph - N/A   Clear
5:35 AM 37.4 °F 32.1 °F 30.2 °F 75% 29.77 in 10.0 mi SW 6.9 mph - N/A   Clear
5:55 AM 37.4 °F 31.4 °F 30.2 °F 75% 29.77 in 10.0 mi SW 8.1 mph - N/A   Clear
6:15 AM 37.4 °F 31.4 °F 30.2 °F 75% 29.78 in 10.0 mi SW 8.1 mph - N/A   Clear
6:35 AM 37.4 °F 32.1 °F 28.4 °F 70% 29.79 in 10.0 mi SW 6.9 mph - N/A   Clear
6:56 AM 35.6 °F 29.2 °F 30.2 °F 81% 29.79 in 10.0 mi SW 8.1 mph - N/A   Clear
7:15 AM 35.6 °F 29.9 °F 30.2 °F 81% 29.80 in 10.0 mi SW 6.9 mph - N/A   Clear
7:35 AM 35.6 °F 29.2 °F 30.2 °F 81% 29.80 in 10.0 mi SSW 8.1 mph - N/A   Clear
7:55 AM 35.6 °F 29.9 °F 30.2 °F 81% 29.81 in 10.0 mi SSW 6.9 mph - N/A   Clear
8:15 AM 37.4 °F 32.8 °F 30.2 °F 75% 29.81 in 10.0 mi South 5.8 mph - N/A   Clear
8:35 AM 39.2 °F 32.5 °F 33.8 °F 81% 29.82 in 10.0 mi SSW 10.4 mph - N/A   Clear
8:55 AM 39.2 °F 32.5 °F 33.8 °F 81% 29.82 in 10.0 mi SSW 10.4 mph - N/A   Clear
9:15 AM 42.8 °F 37.0 °F 33.8 °F 70% 29.82 in 10.0 mi SSW 10.4 mph - N/A   Clear
9:35 AM 42.8 °F 37.0 °F 33.8 °F 70% 29.82 in 10.0 mi SW 10.4 mph - N/A   Clear
9:55 AM 44.6 °F 37.8 °F 33.8 °F 66% 29.82 in 10.0 mi SW 15.0 mph - N/A   Scattered Clouds
10:15 AM 44.6 °F 37.8 °F 33.8 °F 66% 29.83 in 10.0 mi SW 15.0 mph - N/A   Mostly Cloudy
10:55 AM 46.4 °F 40.4 °F 35.6 °F 66% 29.83 in 10.0 mi SW 13.8 mph - N/A   Mostly Cloudy
11:15 AM 44.6 °F 37.2 °F 32.0 °F 61% 29.83 in 10.0 mi SW 17.3 mph 21.9 mph N/A   Mostly Cloudy
11:35 AM 48.2 °F - 33.8 °F 58% 29.83 in 10.0 mi SW 18.4 mph 23.0 mph N/A   Mostly Cloudy
11:55 AM 46.4 °F 40.4 °F 33.8 °F 62% 29.83 in 10.0 mi SW 13.8 mph - N/A   Overcast
12:15 PM 48.2 °F - 33.8 °F 58% 29.84 in 10.0 mi SW 13.8 mph 20.7 mph N/A   Overcast
12:35 PM 48.2 °F - 35.6 °F 62% 29.83 in 10.0 mi SW 17.3 mph 21.9 mph N/A   Overcast
12:55 PM 48.2 °F - 35.6 °F 62% 29.83 in 10.0 mi WSW 16.1 mph 21.9 mph N/A   Overcast
1:15 PM 50.0 °F - 35.6 °F 58% 29.83 in 10.0 mi WSW 19.6 mph 24.2 mph N/A   Overcast
1:55 PM 50.0 °F - 35.6 °F 58% 29.83 in 10.0 mi West 19.6 mph 24.2 mph N/A   Overcast
2:15 PM 51.8 °F - 35.6 °F 54% 29.83 in 10.0 mi WSW 21.9 mph 26.5 mph N/A   Overcast
2:35 PM 50.0 °F - 35.6 °F 58% 29.84 in 10.0 mi WSW 17.3 mph 25.3 mph N/A   Overcast
2:55 PM 51.8 °F - 35.6 °F 54% 29.85 in 10.0 mi WSW 21.9 mph 28.8 mph N/A   Overcast
3:15 PM 51.8 °F - 37.4 °F 58% 29.85 in 10.0 mi West 18.4 mph 26.5 mph N/A   Overcast
3:35 PM 51.8 °F - 35.6 °F 54% 29.86 in 10.0 mi West 20.7 mph 26.5 mph N/A   Overcast
3:55 PM 50.0 °F - 35.6 °F 58% 29.86 in 10.0 mi West 18.4 mph 27.6 mph N/A   Overcast
4:15 PM 51.8 °F - 35.6 °F 54% 29.87 in 10.0 mi WNW 18.4 mph - N/A   Overcast
4:35 PM 51.8 °F - 35.6 °F 54% 29.87 in 10.0 mi West 18.4 mph 27.6 mph N/A   Mostly Cloudy
4:55 PM 51.8 °F - 35.6 °F 54% 29.88 in 10.0 mi WNW 16.1 mph 23.0 mph N/A   Mostly Cloudy
5:15 PM 50.0 °F - 33.8 °F 54% 29.89 in 10.0 mi WNW 16.1 mph 23.0 mph N/A   Overcast
5:35 PM 50.0 °F - 33.8 °F 54% 29.90 in 10.0 mi West 21.9 mph 26.5 mph N/A   Overcast
5:55 PM 50.0 °F - 33.8 °F 54% 29.90 in 10.0 mi WNW 17.3 mph 20.7 mph N/A   Mostly Cloudy
6:15 PM 51.8 °F - 33.8 °F 50% 29.91 in 10.0 mi WNW 19.6 mph - N/A   Partly Cloudy
6:35 PM 51.8 °F - 33.8 °F 50% 29.91 in 10.0 mi WNW 13.8 mph 19.6 mph N/A   Partly Cloudy
6:55 PM 50.0 °F - 33.8 °F 54% 29.92 in 10.0 mi WNW 17.3 mph - N/A   Partly Cloudy
7:15 PM 48.2 °F - 32.0 °F 54% 29.92 in 10.0 mi WNW 15.0 mph 20.7 mph N/A   Clear
7:35 PM 48.2 °F - 32.0 °F 54% 29.92 in 10.0 mi WNW 12.7 mph - N/A   Clear
7:55 PM 48.2 °F - 32.0 °F 54% 29.92 in 10.0 mi WNW 12.7 mph - N/A   Clear
8:15 PM 44.6 °F 40.2 °F 32.0 °F 61% 29.93 in 10.0 mi West 8.1 mph - N/A   Clear
8:35 PM 44.6 °F 40.2 °F 30.2 °F 57% 29.93 in 10.0 mi NW 8.1 mph - N/A   Clear
8:55 PM 44.6 °F 41.4 °F 30.2 °F 57% 29.94 in 10.0 mi NW 5.8 mph - N/A   Clear
9:15 PM 42.8 °F 38.6 °F 30.2 °F 61% 29.95 in 10.0 mi NW 6.9 mph - N/A   Clear
9:55 PM 42.8 °F 38.0 °F 30.2 °F 61% 29.97 in 10.0 mi NW 8.1 mph - N/A   Clear
10:15 PM 42.8 °F 37.5 °F 30.2 °F 61% 29.97 in 10.0 mi NW 9.2 mph - N/A   Clear
10:35 PM 41.0 °F 35.8 °F 30.2 °F 65% 29.98 in 10.0 mi WNW 8.1 mph - N/A   Clear
10:55 PM 41.0 °F 35.8 °F 30.2 °F 65% 29.99 in 10.0 mi WNW 8.1 mph - N/A   Clear
11:15 PM 39.2 °F 35.0 °F 30.2 °F 70% 30.00 in 10.0 mi WNW 5.8 mph - N/A   Clear
11:35 PM 37.4 °F 32.8 °F 30.2 °F 75% 30.00 in 10.0 mi West 5.8 mph - N/A   Clear
11:55 PM 39.2 °F 35.0 °F 30.2 °F 70% 30.00 in 10.0 mi WSW 5.8 mph - N/A   Clear